Location: Bytom
(50.3475°N, 18.9244°E)
Time: 19:24:23
(UTC+01:00)

ISS - Visible Passes

Search period start: 22 February 2018 00:00
Search period end: 04 March 2018 00:00
Orbit: 402 x 407 km, 51.6° (Epoch: 23 February)

Date Brightness Start Highest point End Pass type
(mag) Time Alt. Az. Time Alt. Az. Time Alt. Az.
27 Feb -1.0 05:34:15 10° S 05:36:14 15° SE 05:38:15 10° ESE visible
01 Mar -2.0 05:25:00 10° SSW 05:27:50 27° SSE 05:30:41 10° E visible
02 Mar -1.4 04:34:05 13° S 04:35:42 18° SE 04:38:00 10° E visible
03 Mar -0.8 03:44:04 11° SE 03:44:04 11° SE 03:44:38 10° ESE visible
03 Mar -3.1 05:16:44 13° SW 05:19:28 48° SSE 05:22:40 10° E visible
